CZ-4C DEB, 45484

Orbit data source: Space-Track

CZ-4C DEB, 45484 is space debris in LEO originally from a launch on Tue, 10 Apr 2018 UTC launched from the Jiuquan Satellite Launch Center, China (JSC). Debris objects in space refer to the collection of defunct objects orbiting the Earth. Examples of debris include non-operational satellites, rocket bodies, and fragments generated from explosions, collisions, or faulty payload assembly.

Loading next visibility...
Identifier
45484, 2018-034M
Orbit
LEO
Country
Flag of CNCN / PRC
Related business
Manufacturer
Unknown
Mission
Spacecraft
Bus & Motor
Unknown
Mass
Unknown
Launch date (UTC)
2018-04-10 (8 years ago)
Launch vehicle
Unknown
Launch site
Jiuquan Satellite Launch Center, China (JSC)
Object type
Payload
Rocket body
Debris
Shape & HBR
Unknown shape, 0.1 m
Radar Cross Section
Small (<0.1 m²)

Expand to show TLE details & history
Last TLE update: 1 day ago

TLE from 1 day ago
0 CZ-4C DEB
1 45484U 18034M   25297.48489909 -.00000047  00000-0  63403-4 0  9999
2 45484  63.3928   5.8949 0244743   7.8421 352.6322 13.42924899335756
Epoch: 2025-10-24T11:38Z
TLE epoch observation values (Epoch: 2025-10-24T11:38:15.281Z)
Latitude
-0.00001°
Longitude
158.20209°
Altitude
918.754 km
Speed
7.482 km/s
True Right ascension
00h 23m 34s
True Declination
0° 00' 00"
Sunlit
Object was in full shadow at epoch
Visualization orbit readout
Latitude
Unknown
Longitude
Unknown
Altitude
Unknown
Speed
Unknown
Apparent Right ascension
Unknown
Apparent Declination
Unknown
Sunlit
N/A
Visualization observer readout
Local Sidereal Time
14:17:05
Azimuth
Unknown
Elevation
Unknown
Doppler factor
Unknown
Orbital elements
Apogee altitude
1,280.189 km
Perigee altitude
914.28 km
Semi-major axis
7,475.371 km
Eccentricity
0.02447
Inclination
63.3928°
RAAN
5.8949°
Arg. of periapsis
7.8421°
True anomaly
352.26131°
Mean anomaly
352.6322°
Eccentric anomaly
352.4479°
Mean motion
3.3581 °/min
Orbital period
107.2 mins
BSTAR
0.000063403
Loading maneuver chart data...
Computing Atmospheric mass density...
Loading historical data...
Loading historical data...
Loading historical data...
Loading historical data...
Loading historical data...
Loading historical data...
Loading historical data...

Documentation

Showing up to 5 results
|